Wind_Speed
18 19 21 21 19 18 19 21 22 21 18 16 14 12 10 8 7 6 5 6 6 7 8 8 8 8 9 9 9 8 8 8 9 10 10 11 11 11 12 12 12 12
19 21 23 22 21 21 23 24 23 21 19 16 14 11 9 7 6 5 5 6 6 7 8 8 8 9 9 9 9 9 8 8 9 10 11 11 11 11 10 11 12 11
20 23 25 24 24 25 26 26 24 21 18 16 13 11 8 6 4 4 5 6 6 7 7 8 8 8 8 9 9 10 9 8 8 9 9 10 11 11 10 10 11 10
22 25 27 26 27 27 27 26 23 20 17 15 13 10 8 5 4 3 4 5 6 6 7 7 7 6 7 8 8 9 8 8 8 8 8 8 9 10 10 10 10 10
25 27 27 27 29 29 28 25 22 20 17 15 12 10 7 5 4 3 3 5 6 6 6 6 6 5 6 6 6 7 8 8 7 7 7 6 7 9 11 10 10 11
27 27 26 27 29 29 28 25 23 20 17 15 13 10 8 6 4 2 2 4 5 6 7 6 6 5 5 5 6 7 8 7 7 7 6 6 5 7 9 9 10 11
26 27 27 27 29 30 29 26 23 20 18 16 13 10 8 6 4 2 2 3 4 5 6 6 5 5 4 4 5 6 7 7 8 7 6 6 6 6 7 8 9 10
25 28 28 28 30 30 29 25 22 21 19 16 13 11 8 5 3 3 2 3 4 5 5 6 6 5 5 4 4 6 7 8 8 8 7 6 6 6 6 6 7 8
26 28 28 28 30 30 28 25 23 22 19 16 14 11 8 6 4 3 3 3 4 5 5 5 5 6 6 5 5 6 7 8 9 9 7 6 6 7 6 5 6 7
27 29 29 29 30 30 29 26 23 22 19 17 14 10 9 8 6 3 3 3 3 5 5 5 5 6 6 6 5 6 7 8 9 10 9 8 7 6 5 5 6 5
28 29 30 30 31 32 31 27 24 22 19 17 14 11 11 10 7 5 3 3 3 5 5 5 5 6 6 6 6 6 6 7 9 10 9 9 9 7 6 6 7 7
27 29 29 29 31 33 31 27 24 22 20 18 16 16 14 10 8 6 4 4 4 5 6 6 6 6 7 7 7 7 7 7 7 8 9 9 10 10 9 8 8 9
29 28 28 27 29 30 29 27 26 23 21 19 18 17 14 12 10 8 6 6 5 6 7 7 7 7 7 7 8 8 8 8 7 8 8 9 9 9 10 9 9 9
29 29 28 26 26 27 26 25 25 24 22 21 19 17 15 13 12 10 9 8 8 8 8 8 9 9 9 9 9 9 9 8 8 8 8 8 8 8 8 8 8 9
24 25 26 26 25 25 25 24 24 24 24 22 20 18 17 15 13 12 11 11 11 10 9 10 11 11 11 11 11 11 10 9 9 8 9 9 9 9 9 9 9 10
23 23 24 26 25 23 22 22 23 24 24 23 22 20 18 17 15 14 14 14 14 13 12 13 13 12 12 12 11 12 12 11 10 10 10 10 10 10 10 10 10 11
24 24 25 27 28 26 23 22 23 22 22 22 22 22 20 18 18 17 17 17 17 16 16 15 14 13 14 14 13 13 13 12 12 12 11 11 11 11 12 12 12 13
26 27 25 24 26 27 26 24 23 21 21 21 23 24 22 21 21 20 20 20 20 19 19 18 17 17 17 16 15 15 15 14 14 13 13 13 12 13 13 14 15 15
25 26 25 24 24 26 26 26 25 23 22 21 22 23 24 23 24 23 23 23 24 24 23 22 21 20 19 18 17 16 16 15 15 15 15 14 14 14 14 15 17 18
24 23 24 24 26 28 26 26 27 28 26 24 22 22 23 24 25 26 27 28 28 27 26 26 26 25 24 21 19 19 18 16 17 17 16 16 17 17 17 18 20 21
20 19 18 18 20 23 23 22 23 25 27 27 26 25 26 27 28 28 29 31 31 29 29 30 30 30 28 23 20 21 20 18 19 20 19 20 19 19 20 21 22 23
18 17 15 14 14 15 15 16 18 20 23 25 24 24 25 25 27 29 32 35 35 33 31 32 32 33 32 27 23 22 22 21 23 22 22 23 22 22 23 24 24 26
15 15 14 13 13 12 14 15 17 19 19 18 17 16 15 15 16 21 28 33 35 34 33 33 34 34 33 29 25 23 24 24 24 24 24 26 26 26 27 27 27 27
11 11 12 11 10 10 11 12 13 13 13 13 12 11 10 9 9 11 16 21 23 25 29 32 33 33 32 29 25 25 25 24 23 24 26 27 27 26 28 30 29 27
9 9 9 9 9 9 9 9 9 9 10 11 9 8 7 6 5 4 6 9 12 15 18 21 24 26 26 24 22 24 24 24 23 25 26 28 27 26 29 32 32 31
9 9 8 8 9 10 11 11 11 9 9 8 7 7 8 7 5 5 5 7 10 11 12 13 14 17 19 20 21 22 23 24 24 25 27 28 27 26 29 32 34 35
Wind_Direction
217 204 192 185 178 173 174 175 171 166 167 167 168 172 176 181 190 195 199 202 200 195 196 197 196 196 192 196 202 196 199 216 220 222 225 232 241 245 245 247 245 242
212 199 189 184 177 172 176 177 171 169 172 173 175 176 177 183 191 198 206 209 204 197 199 200 199 202 196 193 199 197 200 216 220 221 222 221 227 236 238 243 245 240
203 195 191 184 176 177 180 177 172 174 177 178 178 176 174 181 190 201 209 210 208 203 202 202 203 205 198 194 198 198 203 215 216 218 222 214 211 221 227 230 237 236
199 195 193 184 176 180 181 177 177 179 180 182 182 178 176 182 189 199 208 207 206 206 205 203 202 199 194 192 195 198 206 214 215 219 227 221 209 212 220 223 227 232
199 196 195 186 180 181 180 179 182 183 185 188 188 188 189 196 201 197 200 200 199 203 203 199 195 189 189 193 193 199 207 212 216 214 213 218 216 212 215 214 217 229
194 191 191 188 185 182 180 183 186 186 190 193 194 198 200 208 214 197 192 197 198 202 200 194 187 180 184 193 192 193 198 200 205 203 197 207 218 215 209 202 206 223
189 187 190 191 189 184 182 186 189 191 195 196 199 206 209 217 226 216 210 207 202 202 198 190 178 169 175 191 194 190 190 195 198 193 191 207 218 216 206 198 206 218
190 192 194 194 192 187 186 189 192 195 198 199 205 211 213 227 243 245 247 228 216 210 198 186 172 161 162 178 195 196 195 200 196 185 187 202 214 218 210 202 213 222
195 197 195 194 194 192 191 193 196 199 198 199 206 212 219 233 248 255 254 238 226 217 200 186 171 160 158 167 184 194 197 197 189 182 185 192 203 215 211 196 206 223
199 198 195 195 196 196 197 199 203 204 202 201 206 212 223 231 239 252 251 236 225 216 204 188 170 160 153 157 172 186 192 192 187 183 185 188 194 204 202 185 190 206
201 200 199 199 200 200 201 203 207 208 205 206 215 228 230 228 232 243 245 229 213 210 203 189 175 164 152 151 159 172 182 188 189 189 188 191 193 196 195 183 180 189
203 201 202 202 201 201 202 205 208 208 209 214 225 234 230 224 230 237 239 230 213 206 201 189 178 170 162 157 159 164 172 179 186 189 186 186 190 196 199 192 187 191
201 199 201 203 201 201 203 208 210 210 213 216 221 224 221 220 227 230 234 236 223 207 199 190 183 179 175 171 168 169 172 176 184 191 189 187 192 199 201 199 197 197
201 194 194 198 202 203 204 208 212 213 215 216 216 216 215 218 223 226 232 237 231 221 208 194 185 182 183 185 182 178 179 183 189 196 201 202 203 206 207 208 210 210
207 199 194 195 201 206 208 211 213 214 215 216 216 215 215 219 223 226 232 237 234 230 217 201 195 194 196 199 194 186 186 192 199 206 213 218 219 222 224 224 226 227
209 206 200 199 203 207 209 212 214 214 213 213 215 217 219 222 225 226 229 231 229 226 218 213 212 209 207 207 204 200 197 199 208 218 226 231 236 239 240 241 243 244
213 210 205 203 206 208 207 209 211 211 211 210 214 219 222 223 225 226 227 227 225 222 219 218 216 211 207 207 209 211 212 211 215 221 230 238 244 247 251 252 253 255
218 216 211 206 207 210 212 213 212 210 210 211 214 217 220 221 222 223 225 226 225 223 219 215 209 206 209 213 213 214 218 220 222 225 229 237 244 247 254 258 258 259
220 219 217 213 213 215 216 220 223 223 221 219 217 217 220 222 224 223 222 222 222 221 219 214 207 203 206 212 216 221 224 223 227 231 231 235 243 247 252 258 261 261
220 219 219 218 220 220 217 217 223 227 227 226 223 220 220 222 226 226 223 223 221 219 218 215 209 206 208 212 217 222 225 230 235 238 239 241 244 248 252 257 262 265
217 219 220 219 222 225 222 221 225 227 228 228 226 225 226 226 227 226 225 227 224 218 217 218 217 218 223 234 239 228 223 232 241 243 248 249 249 253 257 260 264 266
216 216 221 222 224 226 226 227 226 223 226 230 230 231 234 236 236 232 230 232 230 225 222 224 229 234 241 253 257 237 226 234 242 245 251 253 254 257 258 261 263 263
205 203 211 219 222 223 222 220 215 215 224 232 232 234 242 252 255 246 240 240 240 238 236 236 240 246 250 257 256 241 233 238 241 243 250 254 256 258 260 263 264 262
189 191 201 211 215 219 220 216 212 213 220 224 224 231 246 261 271 262 250 247 246 245 245 245 247 250 254 257 253 241 239 242 242 244 251 255 258 260 262 266 268 269
173 179 191 198 199 195 192 192 195 199 207 210 209 219 231 234 246 257 250 245 242 245 250 251 250 250 251 252 246 239 242 246 245 247 253 259 263 265 267 271 273 274
169 174 174 177 183 182 181 187 191 191 201 204 199 210 220 219 218 219 222 231 238 246 256 258 253 248 244 241 239 241 247 249 249 252 257 261 265 268 270 272 274 275
Height
3125 3127 3129 3132 3134 3135 3137 3139 3141 3142 3143 3144 3144 3145 3146 3147 3147 3147 3148 3148 3148 3148 3148 3148 3148 3148 3148 3148 3149 3149 3150 3151 3151 3152 3153 3153 3154 3155 3155 3156 3156 3157
3124 3126 3128 3130 3132 3134 3136 3139 3140 3141 3142 3143 3144 3145 3145 3146 3146 3147 3147 3147 3147 3147 3147 3147 3147 3147 3147 3148 3148 3148 3149 3150 3151 3151 3152 3153 3153 3154 3155 3155 3156 3156
3122 3124 3126 3128 3130 3133 3135 3137 3139 3141 3142 3142 3143 3144 3145 3145 3146 3146 3146 3146 3146 3146 3146 3146 3146 3146 3147 3147 3147 3148 3148 3149 3150 3150 3151 3152 3153 3153 3154 3155 3155 3155
3120 3122 3124 3126 3128 3131 3134 3136 3138 3140 3141 3142 3142 3143 3144 3145 3145 3145 3145 3146 3146 3146 3146 3146 3146 3146 3146 3146 3147 3148 3148 3149 3149 3150 3150 3151 3151 3152 3153 3154 3155 3154
3118 3120 3122 3124 3127 3130 3133 3135 3137 3138 3140 3141 3142 3143 3143 3144 3144 3144 3145 3145 3145 3145 3145 3145 3145 3145 3146 3146 3147 3147 3148 3149 3149 3149 3150 3150 3151 3152 3152 3153 3154 3154
3116 3118 3121 3123 3126 3129 3132 3134 3136 3137 3139 3140 3141 3142 3143 3143 3144 3144 3144 3145 3145 3145 3145 3145 3145 3145 3145 3146 3146 3147 3148 3148 3149 3149 3149 3150 3150 3151 3152 3153 3153 3153
3114 3117 3119 3122 3125 3128 3130 3132 3134 3136 3137 3139 3140 3141 3142 3143 3143 3143 3144 3144 3144 3145 3145 3144 3144 3145 3145 3146 3146 3147 3147 3148 3148 3149 3149 3149 3150 3151 3152 3153 3153 3154
3112 3115 3118 3121 3124 3127 3129 3131 3133 3134 3136 3137 3139 3140 3141 3142 3142 3143 3143 3144 3144 3144 3144 3144 3144 3144 3145 3145 3146 3147 3147 3148 3148 3149 3149 3149 3150 3150 3152 3153 3153 3154
3111 3114 3117 3120 3123 3126 3128 3130 3131 3133 3134 3136 3138 3139 3140 3141 3142 3142 3143 3143 3143 3143 3143 3143 3143 3144 3144 3145 3145 3146 3147 3147 3148 3148 3149 3149 3150 3150 3152 3153 3153 3154
3109 3112 3115 3119 3121 3124 3126 3128 3130 3132 3134 3135 3136 3138 3139 3140 3141 3141 3142 3143 3143 3143 3143 3143 3143 3144 3144 3144 3145 3146 3147 3147 3147 3148 3149 3149 3149 3150 3151 3152 3152 3153
3107 3110 3113 3117 3120 3122 3125 3127 3128 3131 3133 3134 3135 3137 3138 3139 3140 3140 3141 3142 3142 3143 3143 3143 3143 3144 3144 3144 3145 3146 3147 3147 3147 3148 3149 3149 3150 3150 3151 3152 3152 3153
3105 3108 3112 3115 3118 3121 3123 3125 3127 3130 3131 3132 3134 3136 3137 3138 3138 3139 3140 3141 3142 3142 3143 3143 3143 3144 3144 3144 3145 3146 3147 3148 3148 3148 3149 3150 3150 3151 3151 3152 3152 3153
3103 3106 3111 3115 3117 3120 3122 3125 3127 3128 3130 3131 3132 3134 3135 3136 3137 3138 3139 3140 3141 3142 3142 3143 3143 3144 3144 3145 3145 3146 3147 3148 3149 3149 3149 3150 3150 3151 3151 3152 3153 3153
3103 3105 3110 3114 3117 3119 3121 3123 3126 3127 3128 3129 3131 3132 3134 3135 3136 3137 3138 3139 3140 3141 3141 3142 3142 3143 3144 3144 3145 3145 3146 3148 3148 3149 3150 3150 3151 3151 3152 3152 3153 3153
3106 3108 3110 3113 3115 3118 3120 3123 3124 3125 3126 3128 3129 3131 3132 3133 3135 3136 3137 3138 3139 3140 3141 3141 3141 3142 3142 3143 3144 3145 3146 3147 3148 3149 3150 3150 3151 3151 3152 3152 3152 3153
3106 3108 3111 3113 3114 3117 3119 3121 3122 3123 3125 3126 3128 3129 3131 3132 3133 3134 3136 3137 3138 3139 3139 3140 3140 3141 3142 3143 3143 3144 3145 3146 3147 3148 3149 3150 3151 3151 3151 3152 3152 3152
3104 3107 3110 3111 3113 3115 3117 3119 3120 3121 3123 3124 3126 3128 3129 3130 3132 3133 3134 3135 3136 3137 3138 3138 3140 3141 3142 3142 3143 3144 3144 3145 3146 3147 3148 3149 3150 3150 3151 3151 3151 3151
3104 3106 3108 3110 3112 3114 3115 3117 3118 3119 3121 3122 3124 3125 3127 3128 3130 3131 3133 3134 3134 3135 3136 3137 3138 3140 3140 3141 3142 3143 3143 3144 3145 3146 3146 3147 3148 3149 3149 3149 3149 3149
3102 3105 3107 3109 3111 3112 3114 3116 3117 3118 3119 3121 3122 3123 3125 3126 3128 3129 3131 3131 3132 3133 3134 3135 3137 3138 3139 3140 3141 3142 3143 3143 3144 3144 3145 3145 3146 3147 3147 3147 3147 3146
3101 3103 3106 3107 3109 3110 3112 3114 3115 3116 3118 3119 3120 3122 3123 3125 3126 3127 3128 3128 3129 3131 3132 3133 3134 3134 3135 3137 3139 3140 3141 3142 3143 3143 3143 3144 3144 3144 3145 3144 3144 3144
3100 3102 3104 3106 3107 3109 3110 3112 3113 3114 3115 3116 3118 3119 3121 3122 3124 3125 3126 3126 3127 3129 3130 3130 3131 3132 3133 3134 3136 3138 3139 3140 3141 3141 3141 3141 3141 3141 3142 3142 3142 3142
3100 3101 3103 3104 3106 3107 3109 3110 3111 3112 3113 3114 3116 3117 3119 3120 3121 3122 3123 3123 3124 3126 3127 3128 3129 3130 3131 3133 3135 3136 3136 3137 3139 3139 3139 3139 3138 3138 3139 3139 3139 3138
3100 3101 3102 3103 3104 3106 3107 3108 3109 3111 3112 3113 3114 3116 3117 3118 3119 3120 3120 3120 3122 3124 3126 3127 3127 3128 3129 3131 3132 3133 3134 3135 3136 3137 3136 3136 3136 3136 3136 3136 3136 3136
3099 3100 3101 3102 3104 3105 3106 3108 3109 3110 3111 3112 3113 3114 3115 3116 3117 3118 3118 3118 3120 3122 3123 3124 3125 3126 3127 3128 3129 3131 3132 3133 3134 3134 3134 3133 3133 3134 3134 3133 3134 3134
3098 3100 3101 3102 3103 3104 3106 3107 3108 3109 3110 3111 3112 3114 3115 3115 3116 3116 3116 3117 3118 3120 3120 3121 3122 3123 3124 3126 3127 3128 3129 3130 3131 3131 3131 3131 3131 3131 3130 3130 3130 3131
3098 3099 3101 3102 3103 3105 3106 3107 3108 3109 3110 3111 3112 3113 3113 3114 3115 3115 3116 3117 3118 3119 3119 3120 3120 3121 3122 3124 3125 3126 3127 3127 3128 3129 3128 3128 3128 3128 3127 3127 3126 3126